Location: Litvinovka
(48.6667°N, 34.3500°E)
Time: 03:35:02
(UTC+00:00)

HJ-1C - Pass Details

Date: 18 September 2020
Orbit: 432 x 443 km, 97.1° (Epoch: 22 October)

Event Time Altitude Azimuth Distance (km) Brightness Sun altitude
Rises 16:52:04 0° 175° (S) 2,396 6.9 -11.2°
Reaches altitude 10° 16:54:06 10° 180° (S) 1,534 5.9 -11.5°
Maximum altitude 16:57:20 56° 260° (W) 526 4.1 -12.0°
Drops below altitude 10° 17:00:36 10° 339° (NNW) 1,551 6.7 -12.5°
Sets 17:02:39 0° 344° (NNW) 2,427 7.6 -12.9°
